User: anonymous   Login
Location: Caltech
(34.1382°N, 118.1253°W)
Time: 21:43:28
(UTC-08:00)
Language:

ASTRO E2 - Orbit

View from above orbital plane
View from above orbital plane
View from above satellite
View from above satellite

Ground track
Ground track

The orbit data is extracted from the following two-line orbital elements,

1 28773U 05025A   16339.83890449  .00001465  00000-0  71357-4 0  9999
2 28773  31.3822 116.2813 0004771 199.5280 160.5184 15.15335325627848
Epoch (UTC): 04 December 2016 20:08:01
Eccentricity: 0.0004771
inclination: 31.3822°
perigee height: 516 km
apogee height: 523 km
right ascension of ascending node: 116.2813°
argument of perigee: 199.5280°
revolutions per day: 15.15335325
mean anomaly at epoch: 160.5184°
orbit number at epoch: 62784

The dashed part of the orbit path shows where the satellite is in the earth's shadow,  

DLR